Время (UTC), дата Ветер
(°,м/с) 
Видим.   Явления Облачность Т
(°С)
Тd
(°С)
f(%) Тe
(°С)
Pmin
(гПа)
dP
(гПа)
Po
(мм)
O2
(г/м3)
Тmin Tmax R s Состояние
почвы
00 01.12.11 330 (СЗ) 10 км    9/9 800 м 
[Sc]
+0.2 -4.6 70 -1  1023.6  -0.5  761  307           
03 01.12.11 210 (ЮЗ) 10 км    8/8 800 м 
[Sc]
-0.7 -2.9 85 -3  1022.9  -0.7  760  307           
06 01.12.11 250 (З) 4000 м  дымка  10/5 700 м средняя 
[Sc|Ac trans]
+0.3 -1.4 88 -2  1022.2  -0.6  760  306  -1         
09 01.12.11 230 (ЮЗ) 3000 м  дымка{ливн. осадки, снег}  10/5 180 м средняя 
[St|As op]
+1.2 +0 92 -2  1021.1  -1  759  304           
12 01.12.11 260 (З) 10 км  {ливн. осадки, снег}  8/5 480 м средняя 
[Sc|Ac trans]
+3.9 +0.9 81 +1  1019.5  -1.4  758  301           
15 01.12.11 260 (З) 4000 м  дымка  9/4 200 м средняя 
[Sc|Ac trans]
+3.3 +1.1 85 1019.4  -0.1  758  301           
18 01.12.11 220 (ЮЗ) 4000 м  слаб. дождь  9/5 480 м средняя 
[Sc|Ac trans]
+2.8 +0.9 87 +2  1018.7  -0.7  757  302    +4.2  0.0     
21 01.12.11 210 (ЮЗ) 3000 м  слаб. ливневой дождь  10/5 240 м кучево-дожд., средняя 
[Cb calv|Ac trans]
+2.1 +1.3 95 +1  1017.5  -1.2  756  302           
00 02.12.11 290 (З) 3000 м  слаб. ливневой дождь  10/5 150 м кучево-дожд., средняя 
[Cb calv|Ac und]
+1.8 +1 95 +1  1017  -0.5  756  302           
03 02.12.11 280 (З) 3000 м  дымка{ливн. осадки}  10/6 180 м кучево-дожд., средняя 
[Cb calv|Ac und]
+0.8 -0.2 93 -2  1018.3  1.2  757  304           
06 02.12.11 280 (З) 3000 м  дымка{ливн. осадки}  10/8 210 м средняя 
[St|As op]
+1.1 +0 92 1019.5  1.2  758  304  +0.8       
09 02.12.11 330 (СЗ) 4000 м  дымка  10/8 240 м средняя 
[Sc|Ac und]
+2.1 +0 86 +1  1020.5  758  303           
12 02.12.11 020 (С) 4000 м  дымка  10/10 240 м 
[St]
+1.8 +0.2 89 1021.5  759  304           
15 02.12.11 040 (СВ) 4000 м  дымка{морось}  10/10 180 м 
[St]
+0.2 -1 92 -2  1023.6  761  306           
18 02.12.11 050 (СВ) 4000 м  дымка{снег, морось}  10/10 210 м 
[Frnb]
-0.8 -2.2 90 -3  1024.9  1.3  762  308    +3  0.0     
21 02.12.11 050 (СВ) 10 км  в посл. час снег  10/10 270 м 
[Frnb]
-1.1 -2.5 90 -3  1025.9  1.1  762  309           
00 03.12.11 060 (СВ) 10 км  {снег}  10/10 300 м 
[Sc]
-1.4 -2.6 92 -3  1026.2  0.3  763  309           
03 03.12.11 060 (СВ) 10 км    10/10 270 м 
[St]
-1.5 -2.8 91 -3  1027.1  0.8  763  310           
06 03.12.11 100 (В) 10 км    10/10 240 м 
[St]
-2.3 -3.5 91 -3  1028.1  764  311  -2.3    0.0     
09 03.12.11 100 (В) 10 км  слаб. снег  10/10 240 м 
[Sc]
-1.1 -2.3 91 -2  1028.5  0.4  764  309           
12 03.12.11 110 (В) 4000 м  дымка{снег}  10/10 210 м 
[St]
-0.6 -1.7 92 -2  1027.8  -0.5  764  309           
15 03.12.11 100 (В) 4000 м  в посл. час снег  10/10 210 м 
[Sc]
-0.7 -1.5 94 -2  1027.6  -0.2  764  309           
18 03.12.11 110 (В) 3000 м  дымка{снег}  10/5 180 м средняя 
[St|Ac und]
-1 -1.6 96 -2  1027  -0.6  763  309    -0.5  0.0     
21 03.12.11 170 (Ю) 2200 м  дымка  10/5 180 м средняя 
[St|Ac und]
-0.5 -1.1 96 -1  1025.9  -1.1  762  308           
00 04.12.11 110 (В) 2500 м  дымка  10/0 средняя 
[Ac und]
-0.4 -1.1 95 -1  1025.2  -0.7  762  308           
03 04.12.11 120 (ЮВ) 4000 м  дымка  10/5 930 м средняя 
[Sc|Ac und]
+0.3 -1 91 -1  1024.1  -1.1  761  306           
06 04.12.11 160 (Ю) 4000 м  дымка{дождь}  10/6 900 м средняя 
[Sc|Ac und]
+1.6 -0.4 87 -1  1023.6  -0.4  761  305  -2         
09 04.12.11 210 (ЮЗ) 4000 м  слаб. дождь  10/5 270 м средняя 
[Sc|Ac und]
+3.1 +1.7 90 +3  1022.9  -0.7  760  303           
12 04.12.11 190 (Ю) 10 км  {дождь}  10/4 600 м средняя 
[Sc|Ac und]
+4.7 +1.9 82 +4  1021.6  -1.2  759  300           
15 04.12.11 180 (Ю) 10 км    9/3 600 м средняя 
[Sc|Ac trans]
+5.3 +3.2 86 +4  1021.6  759  300           
18 04.12.11 180 (Ю) 10 км    6/0 средняя 
[Ac trans]
+4.1 +2.2 87 +2  1021.2  -0.4  759  301    +5.5  0.0     
21 04.12.11 200 (Ю) 10 км    8/0 средняя 
[Ac trans]
+5 +1.5 78 +3  1020.1  -1.1  758  300           
06 05.12.11 200 (Ю) 10 км    10/6 660 м средняя 
[Sc|Ac trans]
+5.1 +1.6 78 +3  1018.4  -0.2  757  299  +3.9         
09 05.12.11 220 (ЮЗ) 10 км    9/0 средняя, верхняя 
[Ac trans|Ci fib]
+9.4 +2.5 62 +7  1017.2  -1.1  756  294           
12 05.12.11 230 (ЮЗ) 10 км    6/3 600 м средняя, верхняя 
[Sc|Ac trans|Ci fib]
+10.9 +5.8 71 +9  1016.6  -0.5  756  292           
15 05.12.11 200 (Ю) 10 км    9/5 840 м средняя 
[Sc|Ac trans]
+9.3 +5.5 77 +8  1016.6  -0.1  756  294           
18 05.12.11 200 (Ю) 10 км    9/4 600 м средняя 
[Sc|Ac trans]
+7.9 +1.8 65 +6  1016.4  -0.2  755  296    +11.4       
21 05.12.11 180 (Ю) 10 км    4/0 средняя 
[Ac trans]
+5.2 -0.7 66 +4  1016.1  -0.4  755  299           
00 06.12.11 190 (Ю) 10 км    8/3 600 м средняя 
[Sc|Ac trans]
+6.2 -2.1 55 +5  1015.9  -0.2  755  298           
03 06.12.11 190 (Ю) 10 км    5/3 600 м средняя 
[Sc|Ac trans]
+6.6 -3 50 +5  1015.2  -0.7  755  297           
06 06.12.11 200 (Ю) 10 км    8/0 средняя 
[Ac trans]
+7.1 -1.7 53 +5  1015.1  -0.1  754  296  +4.6         
09 06.12.11 190 (Ю) 10 км    9/0 средняя 
[Ac trans]
+10.3 +0 49 +9  1014.4  -0.5  754  293           
12 06.12.11 190 (Ю) 10 км    8/3 600 м средняя, верхняя 
[Sc|Ac trans|Ci fib]
+12.5 +0.6 44 +12  1013.5  -0.9  753  290           
15 06.12.11 190 (Ю) 10 км  {дождь}  10/8 750 м кучево-дожд., средняя 
[Cb calv|Ac und]
+9.8 +1.5 56 +9  1014.3  0.7  754  293           
18 06.12.11 190 (Ю) 10 км  в посл. час ливневой дождь  10/8 800 м кучево-дожд., средняя 
[Cb calv|Ac und]
+10.1 +0 49 +9  1013.9  -0.3  754  293    +12.7  0.0     
21 06.12.11 180 (Ю) 10 км  слаб. ливневой дождь  10/8 800 м кучево-дожд., средняя 
[Cb calv|Ac und]
+8.7 +2.7 66 +8  1013.3  -0.8  753  294           
00 07.12.11 140 (ЮВ) 10 км  слаб. ливневой дождь  10/8 800 м кучево-дожд., средняя 
[Cb calv|Ac und]
+5.7 +3.8 88 +5  1013.3  -0.1  753  297           
03 07.12.11 180 (Ю) 3000 м  слаб. ливневой дождь  10/8 240 м кучево-дожд., средняя 
[Cb calv|As op]
+6.8 +4.5 85 +5  1012.7  -0.5  753  295           
06 07.12.11 210 (ЮЗ) 2000 м  ливневой дождь  10/8 210 м кучево-дожд., средняя 
[Cb calv|As op]
+7.3 +6.1 92 +5  1013.4  0.7  753  295  +4.9       
09 07.12.11 200 (Ю) 4000 м  слаб. ливневой дождь  10/8 240 м кучево-дожд., средняя 
[Cb calv|As op]
+8.2 +6.9 92 +7  1013.4  753  293           
12 07.12.11 180 (Ю) 3000 м  слаб. ливневой дождь  10/8 330 м кучево-дожд., средняя 
[Cb calv|As op]
+7.6 +6.4 92 +7  1013.5  0.1  753  294           
15 07.12.11 200 (Ю) 2500 м  слаб. ливневой дождь  10/8 120 м кучево-дожд., средняя 
[Cb calv|Ac und]
+7.3 +6.5 95 +7  1014.7  1.2  754  295           
18 07.12.11 170 (Ю) 2500 м  слаб. ливневой дождь  10/8 120 м кучево-дожд., средняя 
[Cb calv|As op]
+7.1 +6.4 95 +6  1014.7  754  295    +8.2  12     
21 07.12.11 090 (В) 0200 м  слаб. ливневой дождь{туман}  ?/?  
+7 +7 100 +8  1014.3  -0.4  754  295           
00 08.12.11 080 (В) 3000 м  туман  10/8 100 м кучево-дожд., средняя 
[Cb calv|As op]
+5.7 +5.2 97 +5  1013.5  -0.9  753  296           
03 08.12.11 080 (В) 10 км    10/0 средняя 
[As op]
+3.2 +2.1 92 +1  1011.9  -1.6  752  299           
06 08.12.11 070 (В) 4000 м  дымка  10/4 200 м кучево-дожд., средняя 
[Cb calv|Ac und]
+2.9 +1.6 91 1011.2  -0.8  751  299  +2.6       
09 08.12.11 070 (В) 4000 м  дымка  10/5 240 м средняя 
[Sc|Ac und]
+3.8 +2.3 90 +2  1011.2  0.1  752  298           
12 08.12.11 080 (В) 4000 м  слаб. ливневой дождь  10/6 210 м кучево-дожд., средняя 
[Cb calv|Ac und]
+4.4 +3.5 94 +2  1010.4  -0.8  751  297           
15 08.12.11 090 (В) 3000 м  слаб. ливневой дождь  10/6 150 м кучево-дожд., средняя 
[Cb calv|Ac und]
+4.4 +3.7 95 +3  1011.5  1.1  752  298           
18 08.12.11 020 (С) 2000 м  в посл. час ливневой дождь  10/8 120 м кучево-дожд., средняя 
[Cb calv|Ac und]
+3.9 +3.3 96 +3  1011.9  0.4  752  298    +4.9     
21 08.12.11 350 (С) 2000 м  дымка  10/8 180 м средняя 
[Sc|Ac und]
+4 +3.2 94 +4  1013.1  1.2  753  299           
00 09.12.11 060 (СВ) 2000 м  дымка  10/8 180 м средняя 
[Sc|Ac und]
+2.9 +2.2 95 +2  1013.6  0.4  753  300           
03 09.12.11 320 (СЗ) 3000 м  дымка  10/8 180 м средняя 
[Sc|Ac und]
+3.8 +2.7 93 +3  1014.5  0.9  754  299           
06 09.12.11 320 (СЗ) 3000 м  дымка  10/8 240 м средняя 
[St|Ac und]
+4.2 +3 92 +4  1016.3  1.8  755  299  +2.5       
09 09.12.11 330 (СЗ) 4000 м  дымка  10/5 330 м средняя 
[Sc|Ac und]
+5.2 +3.2 87 +4  1016.7  0.5  756  298           
12 09.12.11 330 (СЗ) 4000 м  дымка  10/5 240 м средняя 
[St|Ac und]
+5.2 +3.1 86 +4  1017.9  1.2  757  299           
15 09.12.11 320 (СЗ) 4000 м  дымка  10/5 330 м средняя 
[Sc|Ac und]
+4.7 +2.6 86 +4  1020  758  300           
18 09.12.11 320 (СЗ) 4000 м  дымка  9/5 570 м средняя 
[Sc|Ac trans]
+3.7 +2.1 89 +3  1020.8  0.8  759  301    +5.3       
21 09.12.11 290 (З) 4000 м  дымка  10/5 270 м средняя 
[Sc|Ac und]
+2.5 +1 90 +2  1022.8  1.9  760  303           
00 10.12.11 300 (СЗ) 4000 м  дымка  10/6 750 м средняя 
[Sc|Ac und]
+2.2 +0.4 88 +2  1024.1  1.2  761  304           
03 10.12.11 300 (СЗ) 4000 м  дымка  10/8 540 м средняя 
[Sc|Ac und]
+1 -1.8 81 -1  1025.1  0.9  762  306           
06 10.12.11 270 (З) 4000 м  дымка  10/10 480 м 
[Sc]
+0.4 -2.5 81 1026.2  1.1  763  307  +0.3         
09 10.12.11 280 (З) 3000 м  слаб. снег  10/8 450 м средняя 
[Sc|Ac und]
-0.3 -2.4 86 -2  1026.7  0.5  763  308           
12 10.12.11 280 (З) 10 км  {снег}  10/10 480 м 
[Sc]
+0.7 -2.7 78 -1  1026.5  -0.2  763  307           
15 10.12.11 220 (ЮЗ) 10 км    10/10 570 м 
[Sc]
+0.8 -2.1 81 -1  1026.8  0.3  763  307           
18 10.12.11 160 (Ю) 10 км    9/9 500 м 
[Sc]
+0.7 -1.6 85 -1  1026.4  -0.4  763  307    +1  0.0     
21 10.12.11 170 (Ю) 10 км    9/6 700 м средняя 
[Sc|Ac trans]
+0.2 -1.5 88 -2  1025.8  -0.6  762  307           
00 11.12.11 150 (ЮВ) 10 км    6/6 750 м 
[Sc]
+0.1 -1.2 91 -1  1024.6  -1.2  761  307           
03 11.12.11 170 (Ю) 10 км    9/6 800 м средняя 
[Sc|Ac trans]
+1.2 -0.5 88 -1  1022.8  -1.7  760  305           
06 11.12.11 190 (Ю) 10 км    8/4 600 м средняя, верхняя 
[Sc|Ac trans|Ci fib]
+3 +0.3 82 +1  1021.9  -0.9  759  303  -0.4         
09 11.12.11 190 (Ю) 10 км    9/4 600 м средняя 
[Sc|Ac trans]
+4.5 +0.9 77 +2  1020.4  -1.4  758  300           
12 11.12.11 200 (Ю) 10 км    9/3 1000 м кучево-дожд., средняя 
[Cb calv|Ac trans]
+6.8 +3 77 +4  1017.7  -2.6  756  297           
15 11.12.11 230 (ЮЗ) 4000 м  слаб. ливневой дождь  10/6 840 м кучево-дожд., средняя 
[Cb calv|Ac und]
+6.7 +4.5 86 +5  1017.6  -0.3  756  297           
18 11.12.11 310 (СЗ) 10 км  слаб. ливневой дождь  10/8 180 м кучево-дожд., средняя 
[Cb calv|Ac und]
+4.7 +2.2 84 +2  1019.3  1.6  758  300    +7  0.8     
21 11.12.11 320 (СЗ) 10 км  в посл. час снег{ливн. осадки}  9/0 средняя 
[Ac trans]
+1.4 -1.2 83 1022.5  3.1  760  305           
00 12.12.11 250 (З) 10 км  {ливн. осадки}  3/0 верхняя 
[Ci fib]
-1.1 -3.1 86 -2  1025.1  2.5  762  309           
03 12.12.11 290 (З) 10 км    ясно 
-0.8 -2.7 87 -2  1026.9  1.8  763  309           
06 12.12.11 290 (З) 10 км    5/0 средняя, верхняя 
[Ac trans|Ci fib]
-0.5 -3.2 82 -1  1029.1  2.2  765  309  -2.3       
09 12.12.11 310 (СЗ) 10 км    4/4 600 м 
[Sc]
+1.1 -3.3 72 1029.9  0.8  765  308           
12 12.12.11 300 (СЗ) 10 км    9/9 800 м 
[Sc]
+1.3 -3.2 72 +1  1030.1  0.2  765  307           
15 12.12.11 300 (СЗ) 10 км    9/9 700 м 
[Sc]
+0 -4.5 72 -1  1031.1  766  309           
18 12.12.11 тихо ()   10 км    6/6 700 м 
[Sc]
-0.9 -5 74 -1  1031.5  0.3  766  310    +1.6       
21 12.12.11 050 (СВ) 10 км    9/9 600 м 
[Sc]
-1.5 -5 77 -2  1031.5  766  311           
00 13.12.11 050 (СВ) 4000 м  дымка  5/5 570 м 
[Sc]
-3.4 -5.8 84 -6  1031.3  -0.3  766  313           
03 13.12.11 080 (В) 4000 м  дымка  3/0 средняя 
[Ac trans]
-6.2 -7.3 92 -8  1031.2  -0.2  766  317           
06 13.12.11 110 (В) 4000 м  дымка  4/0 средняя 
[Ac trans]
-3.7 -5 91 -7  1031.4  0.3  766  314  -7.1         
09 13.12.11 090 (В) 10 км    3/0 средняя 
[Ac trans]
+0.3 -2.4 82 -2  1030  -1.2  765  308           
12 13.12.11 090 (В) 10 км    5/0 средняя 
[Ac trans]
+1 -2.2 79 -2  1028.5  -1.5  764  307           
15 13.12.11 090 (В) 10 км    9/1 600 м средняя 
[Sc|Ac trans]
+0.4 -1.3 88 -3  1028.3  -0.2  764  308           
18 13.12.11 090 (В) 4000 м  дымка  9/5 180 м средняя 
[Frnb|Ac trans]
+0 -0.9 94 -3  1027.8  -0.5  764  308    +1.4       
21 13.12.11 090 (В) 0100 м  туман  ?/?  
-0.1 +0 100 -3  1027.7  -0.1  764  308           
00 14.12.11 090 (В) 0200 м  туман  ?/?  
+0.5 +0.5 100 -2  1027.2  -0.5  763  307           
03 14.12.11 090 (В) 0200 м  туман  ?/?  
+0.8 +0.8 100 -2  1026.8  -0.4  763  306           
06 14.12.11 080 (В) 0300 м  туман  ?/?  
+1 +1 100 -2  1027.4  0.6  763  306  -0.2         
09 14.12.11 080 (В) 4000 м  дымка{туман}  10/10 120 м 
[St]
+1.8 +1.5 98 -1  1026.8  -0.5  763  305           
12 14.12.11 080 (В) 4000 м  дымка{туман}  10/10 210 м 
[St]
+2.6 +2.1 96 1026.3  -0.5  763  304           
15 14.12.11 090 (В) 4000 м  дымка  10/8 150 м средняя 
[St|Ac trans]
+2.3 +1.3 93 -1  1026.6  0.3  763  305           
18 14.12.11 090 (В) 4000 м  дымка  10/8 180 м средняя 
[St|Ac und]
+1.9 +1 94 -1  1026.9  0.3  763  305    +2.9       
21 14.12.11 090 (В) 4000 м  дымка  9/9 150 м 
[St]
+1.8 +1.1 95 -1  1027.2  0.3  763  305           
00 15.12.11 080 (В) 4000 м  дымка  9/9 120 м 
[St]
+1.7 +0.9 94 -1  1027.2  763  306           
03 15.12.11 090 (В) 4000 м  дымка  10/10 120 м 
[St]
+1.9 +1.2 95 -1  1027.6  0.4  764  305           
06 15.12.11 090 (В) 4000 м  дымка  10/10 150 м 
[St]
+2.6 +1.7 94 1027.9  0.3  764  305  +1.6         
09 15.12.11 100 (В) 10 км    10/10 180 м 
[St]
+3.2 +2 92 1027.7  -0.2  764  304           
12 15.12.11 090 (В) 10 км    10/10 180 м 
[St]
+2.8 +1.6 92 1027.2  -0.5  763  304           
15 15.12.11 110 (В) 4000 м  дымка  10/10 120 м 
[St]
+1.7 +1 95 -1  1027.7  0.5  764  306           
18 15.12.11 110 (В) 10 км    10/10 180 м 
[St]
+2.1 +1 93 1027.3  -0.4  763  305    +3.3       
21 15.12.11 100 (В) 10 км    10/10 210 м 
[St]
+2.3 +1.2 92 1026.5  -0.8  763  305           
00 16.12.11 110 (В) 4000 м  дымка  10/10 150 м 
[St]
+1.6 +0.8 94 -1  1025.6  -0.9  762  305           
03 16.12.11 100 (В) 2000 м  дымка  10/10 100 м 
[St]
+0.9 +0.4 96 -2  1024.3  -1.3  761  306           
06 16.12.11 110 (В) 1800 м  дымка{туман}  10/10 100 м 
[St]
+0.9 +0.6 98 -3  1023.5  -0.8  761  305  +0.7         
09 16.12.11 100 (В) 4000 м  дымка  10/10 150 м 
[St]
+2 +0.9 92 -1  1021.3  -2.2  759  303           
12 16.12.11 090 (В) 10 км    10/10 210 м 
[St]
+2.5 +1 90 -1  1018.4  -2.8  757  302           
15 16.12.11 100 (В) 10 км    8/5 450 м средняя, верхняя 
[Sc|Ac trans|Ci fib]
+4.1 +2.4 89 +1  1017.7  -0.8  756  300           
18 16.12.11 120 (ЮВ) 10 км    8/8 500 м 
[Sc]
+5.4 +2.3 80 +2  1016.5  -1.1  755  298    +4.1       
21 16.12.11 100 (В) 10{15}  10 км    8/8 480 м 
[Sc]
+3.9 +2.1 88 1015.5  -1.1  755  299           
00 17.12.11 100 (В) 10{15}  10 км    9/9 210 м 
[Sc]
+2.9 +1.5 91 -1  1015.1  -0.4  754  301           
03 17.12.11 110 (В) 10 км    9/9 210 м 
[St]
+2.2 +1 92 -2  1014.6  -0.5  754  301           
06 17.12.11 110 (В) 4000 м  дымка{морось}  10/10 210 м 
[St]
+2.2 +1.1 92 -2  1015  0.4  754  301  +2.1         
09 17.12.11 100 (В) 10 км  {морось}  10/10 180 м 
[St]
+2.5 +1.2 91 -1  1014.3  -0.7  754  301           
12 17.12.11 110 (В) 10  10 км  {морось}  10/10 210 м 
[St]
+2.6 +1.2 90 -2  1013.7  -0.6  753  300           
15 17.12.11 110 (В) 10 км    10/10 150 м 
[St]
+2.4 +1.4 93 -2  1013.9  0.3  753  301           
18 17.12.11 120 (ЮВ) 10 км  {морось}  10/10 180 м 
[Sc]
+3.7 +2.4 91 1013.7  -0.1  753  299    +2.9  0.0     
21 17.12.11 110 (В) 10 км    10/10 330 м 
[Sc]
+4.9 +2.9 87 +2  1013.8  0.1  753  298           
00 18.12.11 110 (В) 10 км    10/10 330 м 
[Sc]
+4.4 +2.8 89 +1  1013.8  753  298           
03 18.12.11 110 (В) 10 км    10/10 240 м 
[Sc]
+3.7 +2.5 92 1013.9  0.1  754  299           
06 18.12.11 110 (В) 10 км    10/8 270 м средняя 
[St|Ac und]
+3.7 +2.3 91 1014.2  0.2  754  299  +2.4    0.0     
09 18.12.11 120 (ЮВ) 10 км    10/6 400 м средняя 
[Sc|Ac und]
+5.5 +2.9 83 +2  1014.8  0.7  754  297           
12 18.12.11 120 (ЮВ) 10 км  слаб. ливневой дождь  10/6 630 м кучево-дожд., средняя 
[Cb calv|Ac und]
+6.6 +4 83 +4  1015.5  0.7  755  296           
15 18.12.11 130 (ЮВ) 10 км  слаб. ливневой дождь  10/8 750 м кучево-дожд., средняя 
[Cb calv|Ac und]
+6.3 +4.2 86 +4  1018  2.5  757  297           
18 18.12.11 140 (ЮВ) 3000 м  слаб. ливневой дождь  10/6 630 м кучево-дожд., средняя 
[Cb calv|Ac und]
+5.8 +4.7 93 +4  1020.3  2.3  758  298    +6.7     
21 18.12.11 160 (Ю) 3000 м  слаб. ливневой дождь  10/8 210 м кучево-дожд., средняя 
[Cb calv|Ac und]
+5.4 +4.4 93 +4  1022.6  2.2  760  300           
00 19.12.11 100 (В) 0800 м  слаб. дождь{ливн. осадки}  ?/?  
+5.3 +5 98 +5  1024.2  1.6  761  300           
03 19.12.11 130 (ЮВ) 0300 м  слаб. ливневой дождь  ?/?  
+5.4 +5.4 100 +4  1025.7  1.5  762  300           
06 19.12.11 090 (В) 1200 м  слаб. ливневой дождь  10/8 100 м кучево-дожд., средняя 
[Cb calv|As op]
+5.4 +4.9 97 +5  1027.7  764  301  +5.2    14     
09 19.12.11 090 (В) 1600 м  дымка{ливн. осадки, туман}  10/10 100 м 
[St]
+5.9 +5.6 98 +4  1028  0.3  764  300           
12 19.12.11 070 (В) 1200 м  слаб. ливневой дождь  10/8 60 м кучево-дожд., средняя 
[Cb calv|As op]
+4.9 +4.6 98 +3  1027.2  -0.8  763  301           
15 19.12.11 080 (В) 2000 м  слаб. дождь{ливн. осадки}  10/8 100 м средняя 
[Frnb|As op]
+4.7 +4.1 96 +1  1027.8  0.6  764  302           
18 19.12.11 080 (В) 0800 м  туман{ливн. осадки, дождь}  ?/?  
+4.3 +3.8 97 +1  1027.7  -0.2  764  302    +6.1     
21 19.12.11 100 (В) 11  0700 м  туман{морось}  ?/?  
+3.7 +3.2 96 -1  1025.4  -2.3  762  302           
00 20.12.11 100 (В) 0800 м  туман{ливн. осадки, дождь}  ?/?  
+2.3 +2.3 100 -2  1024.5  -0.9  761  304           
03 20.12.11 100 (В) 0100 м  туман  ?/?  
+2.8 +2.8 100 -1  1023.3  -1.2  760  303           
06 20.12.11 100 (В) 3000 м  дымка{туман}  10/10 120 м 
[St]
+3.5 +3.2 98 1021.8  -1.4  759  302  +2.3       
09 20.12.11 100 (В) 4000 м  дымка{туман}  10/8 150 м средняя 
[St|Ac und]
+3.5 +3.1 97 1019.6  -2.2  758  301           
12 20.12.11 100 (В) 4000 м  дымка{туман}  10/8 180 м средняя 
[St|Ac und]
+3.7 +2.9 94 1016.9  -2.7  756  300           
15 20.12.11 100 (В) 4000 м  дымка  10/10 150 м 
[St]
+4 +3.3 95 1015.8  -1.1  755  299           
18 20.12.11 100 (В) 4000 м  дымка  10/10 210 м 
[St]
+4.4 +3.3 93 +1  1014.2  -1.5  754  298    +4       
21 20.12.11 100 (В) 10 км    10/8 300 м средняя 
[Sc|Ac und]
+4.4 +3.3 93 +3  1013.8  -0.4  753  298           
00 21.12.11 100 (В) 10 км    8/5 300 м средняя 
[Sc|Ac trans]
+4.3 +3.4 94 +2  1012.8  -1  753  298           
03 21.12.11 080 (В) 4000 м  дымка  9/6 120 м средняя 
[St|Ac trans]
+3.8 +3.1 95 +1  1010.7  -2.1  751  298           
06 21.12.11 120 (ЮВ) 3000 м  в посл. час туман  10/10 150 м 
[St]
+4.5 +4 97 +3  1012.1  1.4  752  298  +3.8         
09 21.12.11 080 (В) 3000 м  в посл. час ливневой дождь  10/6 180 м кучево-дожд., средняя 
[Cb calv|Ac und]
+5.5 +4.3 92 +4  1011.1  -1  751  296           
12 21.12.11 090 (В) 10 км  в посл. час ливневой дождь  10/3 600 м кучево-дожд., средняя 
[Cb calv|Ac und]
+7 +5.5 90 +6  1010.5  -0.6  751  294           
15 21.12.11 260 (З) 10 км  слаб. ливневой дождь  8/3 600 м кучево-дожд., средняя 
[Cb calv|Ac trans]
+8.1 +6 87 +8  1011.8  1.3  752  293           
18 21.12.11 190 (Ю) 4000 м  дымка  8/4 300 м средняя 
[Sc|Ac trans]
+6.7 +5.6 93 +5  1012.9  1.1  753  295    +9.1  0.0     
21 21.12.11 200 (Ю) 10 км    8/5 300 м кучево-дожд., средняя 
[Cb calv|Ac trans]
+7.2 +5.5 89 +5  1014.3  754  295           
00 22.12.11 220 (ЮЗ) 10 км  в посл. час ливневой дождь  9/4 600 м кучево-дожд., средняя 
[Cb calv|Ac trans]
+5.6 +3.6 87 +4  1015.7  1.3  755  298           
03 22.12.11 230 (ЮЗ) 10 км    9/4 600 м кучево-дожд., средняя 
[Cb calv|Ac trans]
+3.8 +1.3 84 1016.6  0.8  755  300           
06 22.12.11 250 (З) 10  10 км    9/9 540 м 
[Sc]
+2.6 -0.2 82 -2  1018.8  2.2  757  302  +2.5       
09 22.12.11 250 (З) 10 км    9/9 540 м 
[Sc]
+3.6 -0.1 77 1019.7  0.9  758  301           
12 22.12.11 240 (ЮЗ) 10 км    6/4 600 м верхняя 
[Sc|Ci fib]
+3.3 -1 73 1019.7  758  302           
15 22.12.11 220 (ЮЗ) 10 км    3/0 верхняя 
[Ci fib]
+0.2 -1.5 88 -1  1020.3  0.5  758  305           
18 22.12.11 тихо ()   10 км    5/0 верхняя 
[Ci fib]
-0.9 -1.9 93 -1  1020.8  0.4  758  307    +3.8       
21 22.12.11 290 (З) 4000 м  дымка  4/4 200 м 
[St]
+0.5 -0.4 94 +1  1020.5  -0.2  758  305           
00 23.12.11 350 (С) 4000 м  дымка  10/0 средняя 
[Ac und]
+0.4 -2 84 1019.5  -1  758  305           
03 23.12.11 060 (СВ) 10 км    8/0 средняя 
[Ac trans]
-1.3 -2.5 92 -3  1019.1  -0.5  757  307           
06 23.12.11 050 (СВ) 4000 м  дымка  10/6 840 м средняя 
[Sc|Ac und]
-0.4 -2 89 -3  1018.7  -0.3  757  306  -1.4         
09 23.12.11 050 (СВ) 4000 м  в посл. час дождь  10/6 700 м средняя 
[Sc|Ac und]
+0.5 -2 83 -2  1017.9  -0.2  756  304           
12 23.12.11 020 (С) 4000 м  дымка{дождь}  10/4 600 м средняя 
[Sc|Ac und]
+0.5 -1.9 84 -2  1016.5  -1.4  755  304           
15 23.12.11 030 (СВ) 10 км    10/5 570 м средняя 
[Sc|Ac und]
+0.4 -2 84 -3  1016.3  -0.2  755  304           
18 23.12.11 040 (СВ) 2500 м  слаб. ливневой снег  10/8 240 м кучево-дожд., средняя 
[Cb calv|Ac und]
-0.6 -1.2 96 -4  1015.6  -0.8  755  305    +0.9  0.0     
21 23.12.11 030 (СВ) 2000 м  слаб. переохл. дождь (гололёд){ливн. осадки, снег} [диам. гололёда 1 мм]  10/8 150 м средняя 
[Frnb|As op]
-0.3 -0.9 96 -4  1014.6  -1  754  304           
00 24.12.11 030 (СВ) 2500 м  слаб. переохл. морось (гололёд){ливн. осадки, снег} [диам. гололёда 2 мм]  10/10 180 м 
[St]
-0.1 -0.7 96 -3  1014.1  -0.5  754  304           
03 24.12.11 050 (СВ) 4000 м  слаб. переохл. морось (гололёд) [диам. гололёда 3 мм]  10/10 150 м 
[St]
-0.3 -0.8 96 -3  1013.2  -0.9  753  304           
06 24.12.11 040 (СВ) 3000 м  дымка{ливн. осадки, снег} [диам. гололёда 3 мм]  10/8 120 м кучево-дожд., средняя 
[Cb calv|As op]
+0.1 -0.3 97 -3  1013.5  0.3  753  303  -0.6       
09 24.12.11 060 (СВ) 2500 м  слаб. дождь{морось}  10/8 120 м средняя 
[Frnb|As op]
+0.6 +0.2 97 -3  1012.5  -0.9  752  302           
12 24.12.11 070 (В) 4000 м  слаб. морось{дождь}  10/10 180 м 
[St]
+1.7 +0.7 93 -1  1012.8  0.3  753  301           
15 24.12.11 060 (СВ) 4000 м  слаб. дождь  10/8 210 м средняя 
[Sc|As op]
+1.5 +0.2 91 -2  1013.9  1.2  753  302           
18 24.12.11 080 (В) 4000 м  дымка{ливн. осадки, дождь}  10/4 300 м кучево-дожд., средняя 
[Cb calv|As op]
+0.6 -0.7 91 -3  1015  754  303    +1.8  0.4     
21 24.12.11 070 (В) 10 км    5/0 средняя 
[Ac trans]
-1.2 -3.1 87 -5  1016  755  306           
00 25.12.11 070 (В) 10 км    8/0 средняя 
[Ac trans]
-2.4 -5.2 81 -7  1017.1  756  308           
03 25.12.11 070 (В) 10 км    6/0 средняя 
[Ac trans]
-3.2 -5.9 82 -7  1017.8  0.7  756  309           
06 25.12.11 080 (В) 10 км    10/0 средняя 
[Ac und]
-3.1 -5.5 84 -7  1019.6  1.8  758  309  -3.3    0.2     
09 25.12.11 090 (В) 10 км    10/6 660 м средняя 
[Sc|Ac und]
-2.2 -4.9 82 -6  1020.4  0.8  758  309           
12 25.12.11 070 (В) 10 км    10/10 400 м 
[Sc]
-0.6 -3.9 78 -3  1021.6  1.2  759  307           
15 25.12.11 060 (СВ) 10 км    10/10 360 м 
[Sc]
-0.9 -3.1 85 -3  1023.3  1.7  760  308           
18 25.12.11 тихо ()   4000 м  дымка  10/10 240 м 
[St]
-0.9 -2.1 92 -1  1024.7  1.4  761  308    -0.4       
21 25.12.11 320 (СЗ) 4000 м  дымка{морось} [диам. гололёда 1 мм]  10/10 360 м 
[Sc]
-0.5 -2.9 84 -1  1025.7  762  308           
00 26.12.11 330 (СЗ) 4000 м  дымка{морось} [диам. гололёда 0 мм]  10/10 540 м 
[Sc]
-0.5 -2.7 85 -1  1027  1.3  763  308           
03 26.12.11 320 (СЗ) 4000 м  дымка [диам. гололёда 0 мм]  10/8 700 м средняя 
[Sc|Ac und]
-1.3 -3.2 87 -3  1027.9  0.8  764  310           
06 26.12.11 330 (СЗ) 4000 м  дымка  4/0 средняя 
[Ac trans]
-4.5 -5.5 93 -8  1029.8  1.8  765  314  -4.5    0.0     
09 26.12.11 290 (З) 4000 м  дымка  10/8 270 м средняя 
[St|Ac und]
-3.2 -4.8 89 -5  1029.8  0.1  765  313           
12 26.12.11 250 (З) 3000 м  дымка{снег}  10/8 180 м средняя 
[Frnb|As op]
-2.9 -3.7 94 -7  1029.6  -0.2  765  312           
15 26.12.11 250 (З) 3000 м  дымка  10/8 150 м средняя 
[Frnb|Ac und]
-3.5 -4.5 93 -9  1028.9  -0.7  764  313           
18 26.12.11 250 (З) 3000 м  снежные зёрна  10/10 150 м 
[St]
-2.4 -3.1 95 -7  1028.1  -0.8  764  311    -1.3  0.0     
21 26.12.11 250 (З) 2000 м  слаб. переохл. морось (гололёд){снег} [диам. гололёда 2 мм]  10/10 100 м 
[St]
-0.6 -0.6 100 -5  1025.3  -2.7  762  308           
00 27.12.11 260 (З) 12-17{17}  2500 м  дымка{снег, морось} [диам. гололёда 1 мм]  10/10 120 м верхняя 
[St|Ci ing]
+0.3 -0.7 93 -5  1024.6  -0.7  761  307           
03 27.12.11 260 (З) 3000 м  в посл. час морось  10/10 150 м 
[St]
+0.6 -0.1 95 -4  1023.5  -1  761  306           
06 27.12.11 270 (З) 2200 м  слаб. морось  10/10 120 м 
[St]
+1.2 +0.5 95 -2  1025  1.5  762  306  -3.6    0.0     
09 27.12.11 260 (З) 4000 м  дымка{морось}  10/8 300 м средняя 
[Sc|Ac und]
+2.5 +0.7 88 -1  1025.1  0.1  762  304           
12 27.12.11 260 (З) 4000 м  дымка{морось}  10/10 400 м 
[Sc]
+2.4 +0.6 88 -2  1024.5  -0.6  761  304           
15 27.12.11 260 (З) 4000 м  дымка  10/10 180 м 
[St]
+1.8 +0.8 93 -2  1024.2  -0.3  761  305           
18 27.12.11 250 (З) 9{15}  4000 м  дымка  10/8 240 м средняя 
[Sc|Ac und]
+2.6 +1.3 91 -1  1023.3  -0.9  760  303    +3  0.0     
21 27.12.11 260 (З) 10  4000 м  дымка{дождь}  10/8 630 м средняя 
[Sc|Ac und]
+3.4 +1.7 89 -1  1021.9  -1.3  759  302           
00 28.12.11 250 (З) 12-16{16}  2000 м  слаб. дождь  10/8 120 м средняя 
[Sc|Ac und]
+3 +2.2 94 -2  1020.1  -1.8  758  302           
03 28.12.11 250 (З) 13-17{18}  3000 м  слаб. морось{дождь}  10/10 150 м 
[St]
+2.9 +2.1 94 -2  1018.5  -1.6  757  301           
06 28.12.11 260 (З) 12-17{17}  3000 м  слаб. дождь{морось}  10/8 150 м средняя 
[Frnb|As op]
+3.5 +2.7 94 -1  1018.5  757  301  +1.8    0.0     
09 28.12.11 260 (З) 10-15{17}  3000 м  дымка{дождь}  9/6 180 м средняя 
[St|Ac trans]
+4.8 +3.7 93 +1  1019.5  758  299           
12 28.12.11 270 (З) 8{17}  10 км  {дождь}  6/6 540 м 
[Sc]
+7.2 +2.3 71 +5  1019.4  758  297           
15 28.12.11 280 (З) 10 км    5/3 600 м средняя 
[Sc|Ac trans]
+4.3 -1.4 66 +2  1022.8  3.3  760  302           
18 28.12.11 290 (З) 10 км    3/0 средняя 
[Ac trans]
+3.1 -2.2 68 +1  1025.2  2.3  762  304    +7.3  0.6     
21 28.12.11 280 (З) 10 км    ясно 
+1.2 -2.1 79 -1  1027  1.7  763  306           
00 29.12.11 280 (З) 10 км    ясно 
-0.5 -2.9 84 -1  1028.3  1.3  764  309           
03 29.12.11 280 (З) 10 км    ясно 
-1.4 -3 89 -2  1029.1  0.7  765  310           
06 29.12.11 280 (З) 10 км    ясно 
-1.4 -2.9 89 -2  1029.9  0.8  765  310  -2.3         
09 29.12.11 210 (ЮЗ) 10 км    ясно 
+3.1 -1 74 +3  1029.3  -0.4  765  305           
12 29.12.11 200 (Ю) 10 км    1/0 верхняя 
[Ci fib]
+3.6 -0.7 73 +2  1027.9  -1.4  764  304           
15 29.12.11 180 (Ю) <0100 м  туман  ?/?  
-1.1 -1.1 100 -2  1027.2  -0.8  763  309           
18 29.12.11 190 (Ю) 0100 м  переохл. туман [диам. изморози 2 мм]  ?/?  
-3.1 -3.1 100 -4  1027  -0.2  763  311    +4.2       
21 29.12.11 110 (В) 0100 м  переохл. туман [диам. изморози 3 мм]  ?/?  
-4.1 -4.1 100 -6  1025.6  -1.4  762  312           
00 30.12.11 100 (В) 0200 м  переохл. туман  ?/?  
-4.6 -4.6 100 -6  1024.1  -1.5  761  312           
03 30.12.11 090 (В) 0200 м  переохл. туман [диам. изморози 5 мм]  ?/?  
-4.6 -4.6 100 -8  1021.4  -2.7  759  312           
06 30.12.11 090 (В) 0200 м  туман [диам. изморози 7 мм]  ?/?  
-3.3 -3.3 100 -6  1020.6  -0.8  758  310  -4.8         
09 30.12.11 100 (В) 1900 м  в посл. час туман [диам. изморози 8 мм]  9/9 100 м 
[St]
-2.4 -2.7 98 -4  1018.3  -2.2  757  308           
12 30.12.11 130 (ЮВ) 10 км  {туман}  6/6 300 м 
[Sc]
+2 +0.9 92 1016.3  -1.8  755  302           
15 30.12.11 110 (В) 2500 м  дымка  10/10 100 м 
[St]
-1.1 -1.4 98 -4  1015.7  -0.7  755  306           
18 30.12.11 160 (Ю) 4000 м  дымка  10/10 180 м 
[St]
-0.1 -0.9 94 -1  1015.7  755  304    +2.1       
21 30.12.11 100 (В) 1500 м  слаб. дождь [диам. гололёда 2 мм]  10/5 180 м средняя 
[Frnb|As op]
+0 -0.4 97 -1  1014.8  -0.9  754  304           
00 31.12.11 тихо ()   2000 м  в посл. час дождь{туман} [диам. гололёда 1 мм]  10/10 150 м 
[St]
+0.3 +0 98 1015.1  0.3  754  304           
03 31.12.11 140 (ЮВ) 0200 м  туман [диам. гололёда 0 мм]  ?/?  
+0.4 +0.4 100 1015.2  0.1  754  303           
06 31.12.11 110 (В) 0100 м  туман  ?/?  
-0.2 -0.2 100 -1  1016.6  1.4  755  305  -1.1       
09 31.12.11 130 (ЮВ) 0100 м  туман  ?/?  
+1.2 +1.2 100 +1  1016.1  -0.5  755  303           
12 31.12.11 090 (В) 0100 м  туман  ?/?  
+2.5 +2.5 100 +1  1015.5  -0.5  755  301           
15 31.12.11 080 (В) 0200 м  туман  ?/?  
+3.4 +3.4 100 +3  1015.8  0.3  755  300           
18 31.12.11 100 (В) 0100 м  туман  ?/?  
+2.9 +2.9 100 +2  1016.1  0.3  755  301    +3.4       
21 31.12.11 080 (В) 0100 м  туман  ?/?  
+2 +2 100 +1  1015.5  -0.6  755  302           
00 01.01.12 080 (В) 0100 м  туман  ?/?  
-0.4 -0.4 100 -3  1015.3  -0.3  754  304           
03 01.01.12 080 (В) 0100 м  туман [диам. гололёда 1 мм]  ?/?  
-0.9 -0.9 100 -3  1014.7  -0.6  754  305           
06 01.01.12 080 (В) 0100 м  туман [диам. гололёда 1 мм]  ?/?  
-1 -1 100 -4  1014.9  0.2  754  305  -1.2         
09 01.01.12 080 (В) 0900 м  туман  ?/?  
-0.2 -0.2 100 -2  1013.6  -1.3  753  304           
Время (UTC), дата Ветер
(°,м/с) 
Видим.   Явления Облачность Т
(°С)
Тd
(°С)
f(%) Тe
(°С)
Pmin
(гПа)
dP
(гПа)
Po
(мм)
O2
(г/м3)
Тmin Tmax R s Состояние
почвы